• In Hungary
  • List of Countries
  • For 7 days
  • Water Temperature
  • Satellite Maps
  • Weather Map
  • News
  • Weather Widgets
  • user-avatar
    Login

    Hourly Weather Dolgovo

    Today, 27 April, Friday

    Time Temperature Precipitation Wind Pressure Humidity
    00:00 +3°C° 0 mm 3 mps 739 mmHg 92%
    01:00 +3°C° 0 mm 3 mps 739 mmHg 93%
    02:00 +2°C° 0 mm 3 mps 739 mmHg 94%
    03:00 +2°C° 0 mm 3 mps 740 mmHg 94%
    04:00 +2°C° 0 mm 3 mps 740 mmHg 94%
    05:00 +2°C° 0 mm 3 mps 741 mmHg 94%
    06:00 +3°C° 0 mm 3 mps 741 mmHg 88%
    07:00 +5°C° 0 mm 3 mps 741 mmHg 82%
    08:00 +7°C° 0 mm 3 mps 742 mmHg 76%
    09:00 +8°C° 0.2 mm 3 mps 742 mmHg 71%
    10:00 +10°C° 0.2 mm 4 mps 742 mmHg 65%
    11:00 +11°C° 0.2 mm 4 mps 742 mmHg 59%
    12:00 +11°C° 0.3 mm 4 mps 742 mmHg 58%
    13:00 +11°C° 0.3 mm 4 mps 742 mmHg 57%
    14:00 +11°C° 0.3 mm 4 mps 742 mmHg 56%
    15:00 +11°C° 0.1 mm 3 mps 743 mmHg 57%
    16:00 +11°C° 0.1 mm 3 mps 743 mmHg 59%
    17:00 +11°C° 0.1 mm 3 mps 743 mmHg 60%
    18:00 +9°C° 0 mm 2 mps 743 mmHg 67%
    19:00 +8°C° 0 mm 2 mps 743 mmHg 74%
    20:00 +7°C° 0 mm 1 mps 744 mmHg 81%
    21:00 +6°C° 0 mm 1 mps 744 mmHg 83%
    22:00 +6°C° 0 mm 1 mps 744 mmHg 85%
    23:00 +5°C° 0 mm 1 mps 744 mmHg 88%

    Tomorrow, 28 April, Saturday

    Time Temperature Precipitation Wind Pressure Humidity
    00:00 +5°C° 0 mm 1 mps 744 mmHg 89%
    01:00 +5°C° 0 mm 1 mps 745 mmHg 91%
    02:00 +4°C° 0 mm 1 mps 745 mmHg 93%
    03:00 +4°C° 0 mm 1 mps 745 mmHg 93%
    04:00 +4°C° 0 mm 1 mps 745 mmHg 93%
    05:00 +4°C° 0 mm 1 mps 745 mmHg 94%
    06:00 +5°C° 0 mm 2 mps 745 mmHg 87%
    07:00 +7°C° 0 mm 2 mps 746 mmHg 80%
    08:00 +8°C° 0 mm 2 mps 746 mmHg 73%
    09:00 +9°C° 0.3 mm 3 mps 746 mmHg 67%
    10:00 +10°C° 0.3 mm 3 mps 746 mmHg 62%
    11:00 +11°C° 0.3 mm 4 mps 746 mmHg 57%
    12:00 +12°C° 0.3 mm 4 mps 746 mmHg 54%
    13:00 +12°C° 0.3 mm 4 mps 746 mmHg 52%
    14:00 +12°C° 0.3 mm 4 mps 746 mmHg 49%
    15:00 +12°C° 0.1 mm 4 mps 746 mmHg 51%
    16:00 +12°C° 0.1 mm 4 mps 746 mmHg 52%
    17:00 +11°C° 0.1 mm 3 mps 746 mmHg 54%
    18:00 +10°C° 0 mm 3 mps 747 mmHg 61%
    19:00 +8°C° 0 mm 2 mps 747 mmHg 68%
    20:00 +6°C° 0 mm 2 mps 747 mmHg 75%
    21:00 +6°C° 0 mm 2 mps 747 mmHg 77%
    22:00 +5°C° 0 mm 2 mps 748 mmHg 80%
    23:00 +5°C° 0 mm 2 mps 748 mmHg 82%

    Day after tomorrow, 29 April, Sunday

    Time Temperature Precipitation Wind Pressure Humidity
    00:00 +4°C° 0 mm 2 mps 748 mmHg 84%
    01:00 +4°C° 0 mm 2 mps 748 mmHg 86%
    02:00 +4°C° 0 mm 2 mps 749 mmHg 87%
    03:00 +4°C° 0 mm 2 mps 749 mmHg 87%
    04:00 +4°C° 0 mm 2 mps 749 mmHg 87%
    05:00 +4°C° 0 mm 2 mps 749 mmHg 87%
    06:00 +6°C° 0 mm 2 mps 749 mmHg 79%
    07:00 +8°C° 0 mm 2 mps 749 mmHg 71%
    08:00 +10°C° 0 mm 2 mps 749 mmHg 63%
    09:00 +13°C° 0 mm 2 mps 749 mmHg 58%
    10:00 +14°C° 0 mm 2 mps 749 mmHg 52%
    11:00 +16°C° 0 mm 3 mps 749 mmHg 46%
    12:00 +16°C° 0 mm 3 mps 748 mmHg 46%
    13:00 +17°C° 0 mm 3 mps 748 mmHg 46%
    14:00 +17°C° 0 mm 3 mps 748 mmHg 47%
    15:00 +17°C° 0 mm 3 mps 747 mmHg 51%
    16:00 +16°C° 0 mm 3 mps 747 mmHg 55%
    17:00 +16°C° 0 mm 3 mps 746 mmHg 59%
    18:00 +13°C° 0 mm 3 mps 746 mmHg 66%
    19:00 +12°C° 0 mm 3 mps 746 mmHg 74%
    20:00 +10°C° 0 mm 3 mps 745 mmHg 82%
    21:00 +10°C° 0.1 mm 3 mps 745 mmHg 85%
    22:00 +10°C° 0.1 mm 3 mps 745 mmHg 87%
    23:00 +10°C° 0.1 mm 3 mps 744 mmHg 90%

    30 April, Monday

    Time Temperature Precipitation Wind Pressure Humidity
    00:00 +10°C° 0.2 mm 3 mps 744 mmHg 92%
    01:00 +9°C° 0.2 mm 3 mps 744 mmHg 94%
    02:00 +9°C° 0.2 mm 3 mps 744 mmHg 96%
    03:00 +9°C° 0 mm 2 mps 744 mmHg 96%
    04:00 +9°C° 0 mm 2 mps 744 mmHg 96%
    05:00 +9°C° 0 mm 2 mps 744 mmHg 96%
    06:00 +12°C° 0 mm 2 mps 744 mmHg 87%
    07:00 +12°C° 0 mm 3 mps 743 mmHg 78%
    08:00 +14°C° 0 mm 3 mps 743 mmHg 69%
    09:00 +15°C° 0 mm 4 mps 744 mmHg 62%
    10:00 +18°C° 0 mm 4 mps 744 mmHg 56%
    11:00 +19°C° 0 mm 5 mps 744 mmHg 49%
    12:00 +19°C° 0 mm 5 mps 744 mmHg 48%
    13:00 +19°C° 0 mm 5 mps 744 mmHg 47%
    14:00 +19°C° 0 mm 5 mps 744 mmHg 46%
    15:00 +18°C° 0 mm 4 mps 744 mmHg 48%
    16:00 +15°C° 0 mm 4 mps 744 mmHg 51%
    17:00 +14°C° 0 mm 3 mps 745 mmHg 54%
    18:00 +12°C° 0 mm 3 mps 745 mmHg 60%
    19:00 +12°C° 0 mm 2 mps 745 mmHg 67%
    20:00 +10°C° 0 mm 1 mps 746 mmHg 73%
    21:00 +9°C° 0 mm 1 mps 746 mmHg 76%
    22:00 +8°C° 0 mm 1 mps 746 mmHg 78%
    23:00 +8°C° 0 mm 1 mps 746 mmHg 80%

    1 May, Tuesday

    Time Temperature Precipitation Wind Pressure Humidity
    00:00 +7°C° 0 mm 2 mps 747 mmHg 80%
    01:00 +7°C° 0 mm 2 mps 747 mmHg 80%
    02:00 +7°C° 0 mm 2 mps 747 mmHg 80%
    03:00 +5°C° 0.3 mm 3 mps 747 mmHg 81%
    04:00 +5°C° 0.3 mm 3 mps 747 mmHg 82%
    05:00 +5°C° 0.3 mm 3 mps 747 mmHg 84%
    06:00 +5°C° 0.5 mm 4 mps 746 mmHg 84%
    07:00 +6°C° 0.5 mm 4 mps 746 mmHg 85%
    08:00 +6°C° 0.5 mm 4 mps 746 mmHg 85%
    09:00 +7°C° 0.3 mm 4 mps 746 mmHg 82%
    10:00 +10°C° 0.3 mm 4 mps 745 mmHg 78%
    11:00 +12°C° 0.3 mm 4 mps 745 mmHg 75%
    12:00 +12°C° 0 mm 3 mps 745 mmHg 77%
    13:00 +14°C° 0 mm 2 mps 745 mmHg 79%
    14:00 +15°C° 0 mm 2 mps 745 mmHg 81%
    15:00 +15°C° 0.1 mm 2 mps 745 mmHg 81%
    16:00 +16°C° 0.1 mm 2 mps 745 mmHg 81%
    17:00 +16°C° 0.1 mm 3 mps 746 mmHg 81%
    18:00 +15°C° 0 mm 2 mps 746 mmHg 85%
    19:00 +14°C° 0 mm 2 mps 747 mmHg 89%
    20:00 +12°C° 0 mm 2 mps 747 mmHg 93%
    21:00 +10°C° 0 mm 2 mps 747 mmHg 94%
    22:00 +10°C° 0 mm 1 mps 748 mmHg 95%
    23:00 +9°C° 0 mm 1 mps 748 mmHg 95%

    2 May, Wednesday

    Time Temperature Precipitation Wind Pressure Humidity
    00:00 +9°C° 0 mm 1 mps 748 mmHg 95%
    01:00 +8°C° 0 mm 1 mps 748 mmHg 95%
    02:00 +7°C° 0 mm 0 mps 748 mmHg 95%
    03:00 +8°C° 0 mm 1 mps 748 mmHg 95%
    04:00 +8°C° 0 mm 1 mps 748 mmHg 94%
    05:00 +9°C° 0 mm 1 mps 748 mmHg 94%
    06:00 +9°C° 0 mm 2 mps 748 mmHg 88%
    07:00 +12°C° 0 mm 2 mps 748 mmHg 83%
    08:00 +14°C° 0 mm 2 mps 747 mmHg 77%
    09:00 +15°C° 0.5 mm 2 mps 747 mmHg 77%
    10:00 +16°C° 0.5 mm 2 mps 747 mmHg 77%
    11:00 +17°C° 0.5 mm 2 mps 746 mmHg 77%
    12:00 +18°C° 0.4 mm 2 mps 746 mmHg 74%
    13:00 +20°C° 0.4 mm 3 mps 746 mmHg 71%
    14:00 +21°C° 0.4 mm 3 mps 746 mmHg 68%
    15:00 +20°C° 0.4 mm 3 mps 746 mmHg 72%
    16:00 +20°C° 0.4 mm 3 mps 746 mmHg 75%
    17:00 +19°C° 0.4 mm 3 mps 745 mmHg 79%
    18:00 +18°C° 0.1 mm 2 mps 746 mmHg 83%
    19:00 +17°C° 0.1 mm 2 mps 746 mmHg 88%
    20:00 +15°C° 0.1 mm 2 mps 746 mmHg 93%
    21:00 +15°C° 0 mm 2 mps 746 mmHg 93%
    22:00 +15°C° 0 mm 2 mps 746 mmHg 92%
    23:00 +14°C° 0 mm 2 mps 747 mmHg 92%
    Show more